www.pogodaiklimat.ru

Погода и климат >> Архив погоды >> Барбадос >> Grantley Adams


ПОГОДА в Grantley Adams

  • Прогноз погоды в Grantley Adams
  • Монитор погоды в Grantley Adams
  • Климат города

АРХИВ ПОГОДЫ в Grantley Adams

Время (UTC), дата Ветер
(напр.,м/с)
 
Видим.   Явления Облачность Т
(С)
Тd
(С)
f
(%)
Тe
(С)
Тes
(С)
Комфортность P
(гПа)
Po
(гПа)
Тmin
(С)
Tmax
(С)
R
(мм)
R24
(мм)
S
(см)
00 7.12 В 4 40 км ясно +25.4 +21.0 77 +32 +32 очень
душно
1016.2 1008.5 +28.9
03 7.12 В 4 40 км ясно +25.2 +19.9 72 +31 +31 очень
душно
1017.0 1009.2
06 7.12 В 4 40 км ясно +25.2 +21.1 78 +32 +32 очень
душно
1015.7 1007.9 +24.2 +28.9
12 7.12 В 4 28 км осадки на расстоянии ясно +26.7 +21.5 73 +34 +36 очень
душно
1017.6 1009.9 +24.9 +28.9
15 7.12 В 4 40 км ясно +29.2 +20.7 60 +36 +46 очень
душно
1018.2 1010.5
18 7.12 В 4 40 км ясно +28.4 +21.7 67 +36 +44 очень
душно
1015.9 1008.2 +24.9 +29.2
21 7.12 В 4 40 км ясно +26.2 +20.0 69 +32 +32 очень
душно
1015.5 1007.8
00 8.12 В 4 30 км ясно +25.5 +20.7 75 +32 +32 очень
душно
1016.4 1008.7 +29.2
03 8.12 В 4 30 км ясно +25.6 +19.7 70 +31 +31 очень
душно
1017.0 1009.3
06 8.12 В 4 28 км осадки на расстоянии {ливн. осадки} ясно +25.2 +20.7 76 +31 +31 очень
душно
1015.9 1008.1 +24.9 +29.2
09 8.12 В 3 30 км ясно +24.2 +19.5 75 +29 +29 душно 1015.9 1008.1
12 8.12 В 4 30 км ясно +27.1 +21.5 71 +34 +37 очень
душно
1017.4 1009.7 +24.5 +29.2
15 8.12 В 5 20 км слабый ливневой дождь ясно +27.0 +22.5 76 +35 +43 очень
душно
1017.5 1009.8
18 8.12 В 4 18 км осадки на расстоянии {ливн. осадки} ясно +26.2 +22.6 81 +35 +42 очень
душно
1015.3 1007.6 +24.5 +28.2
21 8.12 В 3 10 км слабый ливневой дождь ясно +23.1 +21.4 90 +31 +31 очень
душно
1015.3 1007.5
00 9.12 В 4 28 км {ливн. осадки} ясно +24.7 +20.6 78 +31 +31 очень
душно
1016.4 1008.6 +28.2 1
06 9.12 В 4 30 км ясно +24.9 +18.7 68 +30 +30 душно 1016.1 1008.3 +23.2 +28.2
09 9.12 В 4 28 км ясно +24.6 +18.9 71 +30 +30 очень
душно
1015.7 1007.9
12 9.12 В 4 40 км ясно +26.4 +20.0 68 +32 +34 очень
душно
1017.4 1009.7 +24.4 +28.7
21 9.12 В 4 20 км слабый ливневой дождь ясно +25.5 +21.2 77 +32 +33 очень
душно
1015.5 1007.8
00 10.12 В 4 26 км осадки на расстоянии {ливн. осадки} ясно +24.2 +21.2 83 +31 +31 очень
душно
1016.8 1009.0 +28.6
03 10.12 В 4 30 км {ливн. осадки} ясно +24.4 +20.7 80 +30 +30 очень
душно
1016.7 1008.9
06 10.12 В 5 30 км {ливн. осадки} ясно +25.0 +19.7 72 +30 +30 душно 1015.5 1007.7 +23.7 +28.6
09 10.12 В 5 40 км ясно +25.1 +18.7 68 +30 +30 душно 1015.7 1007.9
12 10.12 В 5 30 км ясно +27.0 +22.1 75 +35 +37 очень
душно
1017.9 1010.2 +24.9 +28.6
15 10.12 В 5 30 км {ливн. осадки} ясно +29.2 +20.7 60 +36 +44 очень
душно
1018.4 1010.6
18 10.12 В 4 30 км {ливн. осадки} ясно +28.7 +21.4 65 +37 +43 очень
душно
1016.1 1008.4 +23.7 +29.5
00 11.12 В 4 30 км ясно +25.7 +20.5 73 +32 +32 очень
душно
1017.6 1009.9 +29.5
09 11.12 В 3 30 км ясно +24.6 +20.4 77 +30 +30 очень
душно
1017.3 1009.5
12 11.12 В 4 30 км ясно +26.7 +22.2 76 +35 +37 очень
душно
1018.7 1011.0 +25.4 +29.5
15 11.12 В 4 30 км ясно +29.6 +21.9 63 +38 +47 очень
душно
1018.5 1010.8
03 12.12 В 5 26 км {ливн. осадки} ясно +25.5 +21.7 80 +33 +33 очень
душно
1017.2 1009.5
06 12.12 В 5 26 км ясно +25.2 +20.9 77 +32 +32 очень
душно
1016.2 1008.4 +23.9 +29.7
12 12.12 В 4 20 км слабый дождь ясно +27.2 +24.5 85 +38 +40 очень
душно
1018.0 1010.3 +24.5 +29.7
15 12.12 В 4 40 км ясно +28.5 +19.4 58 +34 +43 очень
душно
1017.9 1010.2
18 12.12 В 4 35 км {дождь} ясно +28.6 +20.7 62 +35 +43 очень
душно
1015.1 1007.4 +24.5 +29.2
21 12.12 В 3 35 км ясно +26.4 +19.7 67 +32 +32 очень
душно
1014.7 1007.0
00 13.12 В 3 30 км ясно +25.4 +20.9 76 +32 +32 очень
душно
1015.8 1008.1 +29.2
03 13.12 В 4 30 км ясно +24.9 +18.6 68 +30 +30 душно 1016.3 1008.5
06 13.12 В 4 30 км ясно +24.7 +17.0 62 +28 +28 душно 1015.2 1007.4 +24.5 +29.2
09 13.12 В 3 30 км ясно +24.4 +17.2 64 +28 +28 душно 1015.1 1007.3
12 13.12 В 3 30 км ясно +26.4 +21.5 74 +34 +36 очень
душно
1017.1 1009.4 +24.2 +29.2
18 13.12 В 3 30 км осадки на расстоянии {ливн. осадки} ясно +28.7 +22.7 70 +38 +47 очень
душно
1015.9 1008.2 +24.2 +28.9

 

Местоположение метеостанции Grantley Adams (Барбадос): широта 13.07 долгота -59.48 высота над уровнем моря 56 м.

В архиве по умолчанию представлена погода в Grantley Adams за последнюю неделю. Архивные данные за месяц целиком и за предыдущие месяцы, начиная с января 2011 года, Вы можете получить, выбрав интересующий диапазон дат из раскрывающегося списка и нажав кнопку "Ввод!".


*Определитесь, кто Вы:
робот инопланетянин человек

Внимание! Время в таблицах - всемирное. Для получения местного времени необходимо прибавить поправку, которая в Grantley Adams равна -4 ч.

Смотрите также архив погоды в соседних городах и на ближайших метеорологических станциях:

Погода в Hewanorra Int Airport (Сент-Люсия) (175 км)
Погода в Arnos Vale (Сент-Винсент и Гренадины) (186 км)
Погода в Vigie (Сент-Люсия) (195 км)
Погода в Le Lamentin (Мартиника) (236 км)
Погода в Crown Point Airport (Тринидад и Тобаго) (259 км)
Погода в Maurise Bishop Airport (Гренада) (277 км)
Погода в Melville Hall Airport (Доминика) (337 км)
Погода в Piarco Int Airport (Тринидад и Тобаго) (339 км)
Погода в Canefield Airport (Доминика) (343 км)
Погода в Guiria Airport (Венесуэла) (414 км)

Пояснения к столбцам:

Ветер - указаны скорость ветра в м/с - средняя за 10 мин, порывы в срок и между сроками (в фигурных скобках) и направление, откуда дует ветер: С - северный, СВ - северо-восточный, В - восточный, ЮВ - юго-восточный, Ю - южный, ЮЗ - юго-западный, З - западный, СЗ - северо-западный.
Видимость - горизонтальная дальность видимости в метрах или километрах. При видимости от 1 до 10 км при отсутствии осадков обычно наблюдается дымка, при ухудшении видимости до 1 км и менее - туман. В сухую погоду видимость может ухудшаться дымом, пылью или мглою.
Явления - указаны атмосферные явления, наблюдавшиеся в срок или в последний час перед сроком; фигурными скобками обозначены явления, наблюдавшиеся между сроками (за 1-3 часа до срока); квадратными скобками обозначены град или гололедные отложения с указанием их диаметра в мм.
Облачность - указаны через наклонную черту общая и нижняя облачность в баллах и высота нижней границы облаков в метрах; квадратными скобками обозначены формы облаков: Ci - перистые, Cs - перисто-слоистые, Cc - перисто-кучевые, Ac - высококучевые, As - высокослоистые, Sc - слоисто-кучевые, Ns - слоисто-дождевые, Cu - кучевые, Cb - кучево-дождевые. Подробнее классификацию облаков см. в Атласе облаков (PDF).
T - Температура воздуха - температура, измеренная на высоте 2 м над землей.
Td - Температура точки росы - температура, при понижении до которой содержащийся в воздухе водяной пар достигнет насыщения.
f - Относительная влажность воздуха - влажноcть воздуха, измеренная на высоте 2 м над землей.
Te - Эффективная температура - температура, которую ощущает одетый по сезону человек в тени. Характеристика душности погоды. При расчете учитывается влияние влажности воздуха и скорости ветра на теплоощущения человека.
Tes - Эффективная температура на солнце - температура, которую ощущает человек, с поправкой на солнечный нагрев. Характеристика знойности погоды. Зависит от высоты солнца над горизонтом, облачности и скорости ветра. Ночью, в пасмурную погоду, а также при ветре 12 м/с и более поправка равна нулю.
P - Атмосферное давление - приведенное к уровню моря атмосферное давление.
Po - Атмосферное давление - измеренное на уровне метеостанции атмосферное давление.
Tmin - Минимальная температура - минимум температуры воздуха на высоте 2 м над землей.
Tmax - Максимальная температура - максимум температуры воздуха на высоте 2 м над землей.
R - Количество осадков - Количество выпавших осадков за период времени, мм. При наведении курсора мыши на число - период времени, за который выпало указанное количество осадков.
R24 - Количество осадков - Количество выпавших осадков за 24 часа, мм.
S - Снежный покров - Высота снежного покрова, см. При наведении курсора мыши на число - состояние снежного покрова и степень покрытия местности в баллах.